Weather in Velikodolinskoe

Ukraine / Odesa District     46°20′32″N   30°33′55″E
В апреле 2022 года жителям России запретили посещать сайт meteo.paraplan.net по решению Генеральной прокуратуры. Аудитория сайта уменьшилась в 10 раз. Владельцы сайта не видят смысла в поддержке погодного сервера в таких условиях. Сайт будет закрыт в октябре.
temp.,
°C
wind,
m/s
gust,
m/s
humid.,
%
clouds,
%
prec.,
mm/h
press.,
hPa
HPBL,
m
3 october, mon
mon300:00+15wnw1015590 0.0 10101057
03:00+14wnw813631 0.0 1011822
06:00+13wsw7107024 0.0 1011464
09:00+15wsw69584 0.0 1011479
12:00+18wsw674246 0.0 10111970
15:00+18ssw2547100 0.0 1010963
18:00+15sw1263100 0.4 1010120
21:00+14nnw11665 0.4 101159
4 october, tue
tue400:00+12nnw467153 0.0 1012214
03:00+11nw47755 0.0 1013264
06:00+12nw610710 0.0 1014456
09:00+13nw69649 0.0 1015696
12:00+16nw784839 0.0 10161586
15:00+18nw78378 0.0 10172073
18:00+16nnw4641100 0.0 1018824
21:00+14nnw464894 0.0 1021327
5 october, wed
wed500:00+13nnw455682 0.0 1022279
03:00+12nw576441 0.0 1023305
06:00+12nw4668100 0.0 1024259
09:00+14nw575927 0.0 1026351
12:00+15nw565392 0.0 1026582
15:00+18nw46396 0.0 10261936
18:00+18nw4541100 0.0 1026685
21:00+16nw2347100 0.0 102798
6 october, thu
thu600:00+15wsw3355100 0.0 1027125
03:00+14wsw3356100 0.0 1027107
06:00+14w2254100 0.0 102789
09:00+16wsw2251100 0.0 1027174
12:00+19sw234190 0.0 1027581
15:00+20sse334194 0.0 1026781
18:00+18s5655100 0.0 1026248
21:00+17ssw466436 0.0 1027160
7 october, fri
fri700:00+16w4569100 0.0 1027112
03:00+15nnw4555100 0.0 1027118
06:00+14n576098 0.0 1027150
09:00+15n5769100 0.0 1027260
12:00+20nne565583 0.0 1027948
15:00+21ne465299 0.0 10251071
18:00+20ene2358100 0.0 1025104
21:00+19ene4764100 0.0 1025348